Overview Statistics Trail Chart Weather Telemetry Raw packets
 

This is the latest recevied weather packets stored in our database for station/object KK4MOR. If no packets are shown the sender has not sent any weather packets the latest 10 day(s).

<< 8 9 10 11 12 13 14 >>
Time Temp. Humidity Pressure Rain* Wind** Luminosity Snow
1788400856 26.11° C 89% 1013.9 hPa 0 mm - - -
1788399956 26.11° C 89% 1013.8 hPa 0 mm - - -
1788399053 26.11° C 87% 1013.7 hPa 0 mm - - -
1788398153 26.67° C 86% 1013.5 hPa 0 mm - - -
1788397250 26.67° C 84% 1013.5 hPa 0 mm - - -
1788396359 27.22° C 82% 1013.5 hPa 0 mm - - -
1788395452 27.78° C 81% 1013.4 hPa 0 mm - - -
1788394549 28.33° C 80% 1013.5 hPa 0 mm - - -
1788393648 28.89° C 79% 1013.5 hPa 0 mm - - -
1788392748 28.89° C 76% 1013.4 hPa 0 mm - - -
1788391858 29.44° C 73% 1013.4 hPa 0 mm - - -
1788390947 30° C 71% 1013.4 hPa 0 mm - - -
1788390045 31.11° C 68% 1013.4 hPa 0 mm - - -
1788389152 31.67° C 67% 1013.5 hPa 0 mm - - -
1788388258 32.22° C 64% 1013.5 hPa 0 mm - - -
1788387342 33.33° C 63% 1013.7 hPa 0 mm - - -
1788386443 33.33° C 59% 1013.6 hPa 0 mm - - -
1788385540 33.89° C 57% 1013.7 hPa 0 mm - - -
1788384639 35° C 54% 1013.8 hPa 0 mm - - -
1788383739 35.56° C 48% 1013.8 hPa 0 mm - - -
1788382838 34.44° C 50% 1014 hPa 0 mm - - -
1788381947 34.44° C 49% 1014 hPa 0 mm - - -
1788381035 35.56° C 47% 1014.1 hPa 0 mm - - -
1788380136 35.56° C 42% 1014.3 hPa 0 mm - - -
1788379232 35.56° C 46% 1014.4 hPa 0 mm - - -

* Rain latest hour (hover to see other rain measurements)
** Current wind speed in m/s (hover to see current wind gust speed)